sat.trackr.live / text

‹ back to catalog

STARLINK-36764

NORAD 68963 · 2026-099N

PAYLOAD ACTIVE UNKNOWN

§ Identity

Operator
Country
US
Launch date
2026-05-01
Launch site
AFETR
Launch vehicle
Mass (kg)
RCS (m²)

Purposes: comms

External: N2YO · Heavens-Above · Gunter

§ Orbital elements

Epoch: 2026-09-19T21:47:21.060096Z

Period
93.85 min
Inclination
53.1578°
Eccentricity
0.0001165
Mean motion
15.34397744 rev/d
Perigee alt
461.9 km
Apogee alt
463.5 km
Semi-major
6,840.8 km
B*
5.9369e-4
RAAN
78.5438°
Arg perigee
85.4615°
Mean anomaly
274.6521°
Rev number
2,181

§ Raw data

STARLINK-367641 68963U 26099N   26262.90788264  .00019734  00000+0  59369-3 0  99982 68963  53.1578  78.5438 0001165  85.4615 274.6521 15.34397744 21816

JSON: /api/v1/satellites/68963 · /tle

For live sub-satellite position, see the globe view (requires WebGL).

§ Visibility from observer

Set your observer location to see the next 7 days of passes ≥ 10°. The values pass through the URL so the page stays shareable.

No JS? Fill the form by hand. The geolocation button needs JavaScript.